FW8773 Weather Reports


time (UTC)temp
F
wind
direction
speed
knots
gust
knots
rain 1hr
in
rain 24hr
in
rain mn
in
humidity
%
barometer
mb
20260504234619 78 117 6.1 9.6 0.00 0.00 0.00 22 999.4
20260504233057 79 84 2.6 8.7 0.00 0.00 0.00 21 999.1
20260504231604 79 79 5.2 9.6 0.00 0.00 0.00 19 999.0
20260504230054 80 58 7.0 9.6 0.00 0.00 0.00 19 998.7
20260504224603 80 100 1.7 6.1 0.00 0.00 0.00 19 998.9
20260504223051 79 62 2.6 7.0 0.00 0.00 0.00 19 999.2
20260504221600 79 43 6.1 9.6 0.00 0.00 0.00 19 999.6
20260504220053 79 96 6.1 11.3 0.00 0.00 0.00 20 999.7
20260504214552 79 360 7.0 11.3 0.00 0.00 0.00 20 999.8
20260504213055 78 360 14.8 22.6 0.00 0.00 0.00 21 999.6
20260504211546 80 191 18.2 24.3 0.00 0.00 0.00 20 999.5
20260504210054 82 145 6.1 8.7 0.00 0.00 0.00 17 999.7
20260504204622 83 146 0.0 9.6 0.00 0.00 0.00 16 999.6
20260504203044 83 270 0.0 5.2 0.00 0.00 0.00 17 999.7
20260504201542 82 27 0.0 7.8 0.00 0.00 0.00 18 1000.0
20260504200041 82 68 2.6 8.7 0.00 0.00 0.00 18 1000.1
20260504194547 82 16 7.0 10.4 0.00 0.00 0.00 18 1000.2
20260504193036 83 360 0.9 5.2 0.00 0.00 0.00 18 1000.6
20260504191534 83 360 1.7 5.2 0.00 0.00 0.00 18 1000.9
20260504190035 82 360 0.0 6.1 0.00 0.00 0.00 19 1001.2
20260504184526 79 360 2.6 11.3 0.00 0.00 0.00 20 1001.3
20260504183028 80 5 3.5 9.6 0.00 0.00 0.00 20 1001.4
20260504181522 78 292 2.6 8.7 0.00 0.00 0.00 20 1001.7
20260504180018 77 47 5.2 10.4 0.00 0.00 0.00 21 1002.1
20260504174515 76 46 4.3 12.2 0.00 0.00 0.00 22 1002.1
20260504173015 76 64 4.3 12.2 0.00 0.00 0.00 23 1002.3
20260504171532 77 13 7.0 11.3 0.00 0.00 0.00 22 1002.5
20260504130117 48 360 4.3 9.6 0.00 0.00 0.00 65 1003.0
20260504081526 47 304 0.0 0.9 0.00 0.00 0.00 60 1003.7
20260504044547 57 98 0.0 2.6 0.00 0.00 0.00 46 1005.0
20260504043047 58 98 0.9 6.1 0.00 0.00 0.00 45 1005.2
20260504041549 59 84 0.9 6.1 0.00 0.00 0.00 43 1005.5
20260504040045 60 83 3.5 7.8 0.00 0.00 0.00 42 1005.5
20260504034600 61 99 5.2 7.8 0.00 0.00 0.00 41 1005.6
20260504033044 62 80 4.3 8.7 0.00 0.00 0.00 40 1005.5
20260504031544 62 67 4.3 8.7 0.00 0.00 0.00 38 1005.6
20260504030044 63 88 5.2 8.7 0.00 0.00 0.00 36 1005.4
20260504024543 64 93 5.2 8.7 0.00 0.00 0.00 35 1005.3
20260504023042 66 86 2.6 8.7 0.00 0.00 0.00 33 1005.2
20260504021541 68 102 3.5 7.8 0.00 0.00 0.00 31 1005.2
20260504020040 69 83 3.5 7.8 0.00 0.00 0.00 30 1005.0
20260504014552 70 75 4.3 7.8 0.00 0.00 0.00 29 1004.9
20260504013039 72 72 5.2 8.7 0.00 0.00 0.00 26 1005.0
20260504011542 74 66 2.6 6.1 0.00 0.00 0.00 23 1004.8
20260504010037 76 66 2.6 7.0 0.00 0.00 0.00 22 1005.0
20260504004535 77 67 2.6 7.8 0.00 0.00 0.00 21 1004.9
20260504003040 76 42 2.6 6.1 0.00 0.00 0.00 22 1005.0
20260504001534 77 42 3.5 7.8 0.00 0.00 0.00 20 1005.0
20260504000031 78 18 3.5 7.8 0.00 0.00 0.00 19 1005.3